Regional Weather Roundup
Issued by NWS

Home | Current Version | Previous Version | Text Only | Print | Product List | Glossary Off
Versions: 1 2 3 4 5 6 7 8 9 10 11 12 13 14 15 16 17 18 19 20 21 22 23 24 25 26 27 28 29 30 31 32 33 34 35 36 37 38 39 40 41 42

000
ASUS45 KBOU 211607
RWRCO

WEATHER ROUNDUP FOR COLORADO
NATIONAL WEATHER SERVICE DENVER/BOULDER CO
1000 AM MDT TUE OCT 21 2014

NOTE: "FAIR" INDICATES FEW OR NO CLOUDS BELOW 12000 FEET WITH NO
SIGNIFICANT WEATHER AND/OR OBSTRUCTIONS TO VISIBILITY.

COZ001>005-013-030-031-211700-
...NORTHWEST COLORADO...

CITY           SKY/WX    TMP DP  RH WIND       PRES   REMARKS
CRAIG          MOSUNNY   52  40  63 CALM      30.10F
HAYDEN         NOT AVBL
MEEKER         MOSUNNY   56  41  57 NE5       30.11F
MOUNT WERNER   NOT AVBL
STEAMBOAT SPGS PTSUNNY   46  37  73 CALM      30.14S
WALDEN         MOSUNNY   50  34  53 S5        30.18F
$$

COZ006>008-011-211700-
...WEST CENTRAL VALLEYS...

CITY           SKY/WX    TMP DP  RH WIND       PRES   REMARKS
GRAND JUNCTION PTSUNNY   58  40  51 E10       30.06S
MONTROSE       CLOUDY    56  39  53 CALM      30.14S
EAGLE          PTSUNNY   45  39  81 CALM      30.20F
RIFLE          LGT RAIN  51  39  63 CALM      30.11F
DELTA          CLOUDY    58  42  55 CALM      30.12S
NUCLA          CLOUDY    54  41  62 CALM      30.17S
$$

COZ017>023-064>068-211700-
...SOUTHWEST COLORADO...

CITY           SKY/WX    TMP DP  RH WIND       PRES   REMARKS
DURANGO        CLOUDY    50  45  83 E5        30.21S
CORTEZ         SUNNY     59  42  53 CALM      30.16R
PAGOSA SPRINGS CLOUDY    47  44  88 CALM      30.26S
TELLURIDE      PTSUNNY   52  36  53 E8        30.29S
WOLF CREEK PAS FOG       32  32 100 SW8       30.42S VSB<1/4 WCI  25
$$

COZ009-010-012-014-032>034-037-058>063-211700-
...CENTRAL COLORADO...

CITY           SKY/WX    TMP DP  RH WIND       PRES   REMARKS
ASPEN          CLOUDY    49  36  61 CALM      30.19F
BUENA VISTA    PTSUNNY   50  35  55 NE3       30.24F
COPPER MTN     CLOUDY    41  30  65 S12       30.39F
BERTHOUD PASS  FAIR      32  30  93 CALM      30.43S
COTTONWOOD PAS PTSUNNY   48  34  57 CALM      30.31S
GUNNISON       CLOUDY    43  32  65 CALM      30.26F
KREMMLING      MOSUNNY   41  32  70 CALM        N/A
LEADVILLE      CLOUDY    38  32  79 W3        30.30F
MONARCH PASS   PTSUNNY   37  32  81 SW16      30.50F
SALIDA         PTSUNNY   51  36  57 N6        30.29F
SUNLIGHT       PTSUNNY   45  37  76 CALM      30.34S
WILKERSON PASS NOT AVBL
$$

COZ069>075-211700-
...SAN LUIS VALLEY/SANGRE DE CRISTO MOUNTAINS...

CITY           SKY/WX    TMP DP  RH WIND       PRES   REMARKS
ALAMOSA        SUNNY     48  37  65 S6        30.25S
LA VETA PASS   SUNNY     45  36  70 S13G22    30.32S
SAGUACHE       PTSUNNY   48  36  61 CALM      30.27F
$$

COZ035-036-038>040-211700-
...NORTHERN COLORADO FRONT RANGE...

CITY           SKY/WX    TMP DP  RH WIND       PRES   REMARKS
DENVER INTL AP MOSUNNY   66  38  35 SW8       30.03F
DMNS CITY PARK   N/A     65  36  34 S6G12     30.03F
AURORA         MOSUNNY   66  37  34 SW13      30.05F
FRONT RANGE AP MOSUNNY   70  39  32 SW9       30.05S
ERIE MUNI ARPT MOSUNNY   58  44  57 CALM      30.03S
BOULDER MUN AP MOSUNNY   61  37  41 CALM      30.03S
CENTENNIAL     MOSUNNY   65  37  35 S10       30.06F
BROOMFIELD     PTSUNNY   59  36  41 W5        30.05S
FORT COLLINS   MOSUNNY   57  39  51 S5        30.04F
LONGMONT       MOSUNNY   63  42  46 CALM      30.04F
$$

COZ041-046-047-076>085-087-088-211700-
...PIKES PEAK/PALMER DIVIDE AND SOUTHERN FOOTHILLS...

CITY           SKY/WX    TMP DP  RH WIND       PRES   REMARKS
COLO. SPRINGS  MOSUNNY   57  43  59 SE6       30.12F
A. F. ACADEMY  SUNNY     61  38  43 S6        30.12F
ELLICOTT       SUNNY     59  43  55 S6        30.11S
FALCON         SUNNY     60  38  42 CALM      30.15F
FORT CARSON    SUNNY     55  43  63 S3        30.10F
LIMON          SUNNY     56  48  74 SE9       30.08F
MONUMENT HILL  SUNNY     63  32  31 SW9       30.13S
TRINIDAD       SUNNY     61  43  51 E5        30.13S
$$

COZ042>045-048>051-090-091-211700-
...NORTHEAST COLORADO...

CITY           SKY/WX    TMP DP  RH WIND       PRES   REMARKS
GREELEY ARPT   SUNNY     54  37  54 CALM      30.03S
AKRON          SUNNY     66  43  43 SW12      30.01F
BURLINGTON     SUNNY     63  53  70 S10       30.06F
WRAY           SUNNY     67  51  57 S10       30.02F
STERLING       SUNNY     61  50  67 S7        29.99F
HOLYOKE        SUNNY     63  52  67 S9G16     30.01F
FORT MORGAN    SUNNY     54  40  59 SW7       30.02F
$$

COZ086-089-092>099-211700-
...SOUTHEAST COLORADO...

CITY           SKY/WX    TMP DP  RH WIND       PRES   REMARKS
PUEBLO         SUNNY     55  44  66 CALM      30.07F
LA JUNTA       SUNNY     61  45  55 CALM      30.07F
LAMAR          SUNNY     60  49  66 CALM      30.05F
SPRINGFIELD      N/A     68  49  50 S18       30.11S
$$


USA.gov is the U.S. government's official web portal to all federal, state and local government web resources and services.